Time,TemperatureF,DewpointF,PressureIn,WindDirection,WindDirectionDegrees,WindSpeedMPH,WindSpeedGustMPH,Humidity,HourlyPrecipIn,Conditions,Clouds,dailyrainin,SoftwareType,DateUTC
2013-02-28 00:02:00,66.0,64.0,29.93,WNW,288,0.0,5.0,92,0.00,,,0.28,,2013-02-28 05:02:00,
2013-02-28 00:11:00,66.0,64.0,29.93,WNW,288,0.0,5.0,92,0.00,,,0.28,,2013-02-28 05:11:00,
2013-02-28 00:22:00,66.0,64.0,29.93,WNW,288,0.0,5.0,92,0.00,,,0.28,,2013-02-28 05:22:00,
2013-02-28 00:32:00,66.0,64.0,29.93,NNW,328,1.0,5.0,92,0.00,,,0.28,,2013-02-28 05:32:00,
2013-02-28 00:42:00,66.0,64.0,29.93,NNW,328,1.0,5.0,92,0.00,,,0.28,,2013-02-28 05:42:00,
2013-02-28 00:52:00,66.0,64.0,29.93,North,350,1.0,3.0,92,0.00,,,0.28,,2013-02-28 05:52:00,
2013-02-28 01:01:00,66.0,64.0,29.93,NNW,336,1.0,5.0,92,0.00,,,0.28,,2013-02-28 06:01:00,
2013-02-28 01:11:00,66.0,64.0,29.93,NNW,336,1.0,5.0,92,0.00,,,0.28,,2013-02-28 06:11:00,
2013-02-28 01:22:00,66.0,64.0,29.93,NW,317,0.0,5.0,92,0.00,,,0.28,,2013-02-28 06:22:00,
2013-02-28 01:32:00,66.0,64.0,29.91,NW,315,0.0,3.0,92,0.00,,,0.28,,2013-02-28 06:32:00,
2013-02-28 01:42:00,66.0,64.0,29.91,NW,315,0.0,3.0,92,0.00,,,0.28,,2013-02-28 06:42:00,
2013-02-28 01:52:00,65.0,63.0,29.91,NNW,348,2.0,6.0,92,0.00,,,0.28,,2013-02-28 06:52:00,
2013-02-28 02:01:00,65.0,63.0,29.90,NNW,347,0.0,4.0,92,0.00,,,0.28,,2013-02-28 07:01:00,
2013-02-28 02:11:00,65.0,63.0,29.90,NNW,347,0.0,4.0,92,0.00,,,0.28,,2013-02-28 07:11:00,
2013-02-28 02:21:00,65.0,62.0,29.90,NNW,347,2.0,6.0,91,0.00,,,0.28,,2013-02-28 07:21:00,
2013-02-28 02:32:00,65.0,62.0,29.88,West,280,0.0,3.0,91,0.00,,,0.28,,2013-02-28 07:32:00,
2013-02-28 02:42:00,65.0,62.0,29.88,West,280,0.0,3.0,91,0.00,,,0.28,,2013-02-28 07:42:00,
2013-02-28 02:51:00,66.0,63.0,29.89,WNW,300,2.0,5.0,91,0.00,,,0.28,,2013-02-28 07:51:00,
2013-02-28 03:01:00,65.0,62.0,29.90,WNW,297,0.0,4.0,90,0.00,,,0.28,,2013-02-28 08:01:00,
2013-02-28 03:11:00,65.0,62.0,29.90,WNW,297,0.0,4.0,90,0.00,,,0.28,,2013-02-28 08:11:00,
2013-02-28 03:22:00,65.0,62.0,29.89,WNW,297,0.0,3.0,90,0.00,,,0.28,,2013-02-28 08:22:00,
2013-02-28 03:32:00,65.0,62.0,29.90,WNW,300,2.0,5.0,89,0.00,,,0.28,,2013-02-28 08:32:00,
2013-02-28 03:42:00,65.0,62.0,29.90,WNW,300,2.0,5.0,89,0.00,,,0.28,,2013-02-28 08:42:00,
2013-02-28 03:52:00,65.0,61.0,29.90,NNW,342,4.0,9.0,88,0.00,,,0.28,,2013-02-28 08:52:00,
2013-02-28 04:03:00,64.0,60.0,29.90,NNW,342,4.0,12.0,87,0.00,,,0.28,,2013-02-28 09:03:00,
2013-02-28 04:12:00,64.0,60.0,29.90,NNW,342,4.0,12.0,87,0.00,,,0.28,,2013-02-28 09:12:00,
2013-02-28 04:22:00,64.0,60.0,29.90,North,355,3.0,12.0,86,0.00,,,0.28,,2013-02-28 09:22:00,
2013-02-28 04:32:00,63.0,59.0,29.89,North,360,4.0,11.0,86,0.00,,,0.28,,2013-02-28 09:32:00,
2013-02-28 04:42:00,63.0,59.0,29.89,North,360,4.0,11.0,86,0.00,,,0.28,,2013-02-28 09:42:00,
2013-02-28 04:52:00,63.0,58.0,29.89,North,355,4.0,10.0,85,0.00,,,0.28,,2013-02-28 09:52:00,
2013-02-28 05:02:00,62.0,57.0,29.91,North,9,4.0,9.0,84,0.00,,,0.28,,2013-02-28 10:02:00,
2013-02-28 05:11:00,62.0,57.0,29.91,North,355,4.0,14.0,83,0.00,,,0.28,,2013-02-28 10:11:00,
2013-02-28 05:22:00,62.0,57.0,29.91,North,355,4.0,14.0,83,0.00,,,0.28,,2013-02-28 10:22:00,
2013-02-28 05:32:00,62.0,57.0,29.91,NNW,348,5.0,10.0,83,0.00,,,0.28,,2013-02-28 10:32:00,
2013-02-28 05:42:00,62.0,57.0,29.91,NNW,348,5.0,10.0,83,0.00,,,0.28,,2013-02-28 10:42:00,
2013-02-28 05:52:00,62.0,57.0,29.93,NNW,340,3.0,12.0,83,0.00,,,0.28,,2013-02-28 10:52:00,
2013-02-28 06:02:00,61.0,55.0,29.93,North,350,2.0,7.0,82,0.00,,,0.28,,2013-02-28 11:02:00,
2013-02-28 06:11:00,61.0,55.0,29.93,North,350,2.0,7.0,82,0.00,,,0.28,,2013-02-28 11:11:00,
2013-02-28 06:22:00,61.0,55.0,29.93,NNW,327,3.0,8.0,82,0.00,,,0.28,,2013-02-28 11:22:00,
2013-02-28 06:32:00,61.0,55.0,29.93,NNW,343,4.0,10.0,80,0.00,,,0.28,,2013-02-28 11:32:00,
2013-02-28 06:42:00,61.0,55.0,29.93,NNW,343,4.0,10.0,80,0.00,,,0.28,,2013-02-28 11:42:00,
2013-02-28 06:52:00,61.0,54.0,29.94,NNW,341,4.0,7.0,79,0.00,,,0.28,,2013-02-28 11:52:00,
2013-02-28 07:02:00,61.0,54.0,29.94,NW,324,2.0,6.0,79,0.00,,,0.28,,2013-02-28 12:02:00,
2013-02-28 07:11:00,61.0,54.0,29.94,NW,324,2.0,6.0,79,0.00,,,0.28,,2013-02-28 12:11:00,
2013-02-28 07:22:00,60.0,53.0,29.95,North,351,3.0,7.0,79,0.00,,,0.28,,2013-02-28 12:22:00,
2013-02-28 07:32:00,60.0,53.0,29.95,North,351,3.0,7.0,79,0.00,,,0.28,,2013-02-28 12:32:00,
2013-02-28 07:42:00,60.0,53.0,29.95,North,351,3.0,7.0,79,0.00,,,0.28,,2013-02-28 12:42:00,
2013-02-28 07:52:00,60.0,53.0,29.95,North,351,3.0,7.0,79,0.00,,,0.28,,2013-02-28 12:52:00,
2013-02-28 08:02:00,60.0,54.0,29.96,NNW,342,1.0,5.0,80,0.00,,,0.26,,2013-02-28 13:02:00,
2013-02-28 08:12:00,61.0,55.0,29.96,North,355,2.0,6.0,81,0.00,,,0.26,,2013-02-28 13:12:00,
2013-02-28 08:22:00,61.0,55.0,29.96,North,355,2.0,6.0,81,0.00,,,0.26,,2013-02-28 13:22:00,
2013-02-28 08:32:00,60.0,54.0,29.96,NNW,333,4.0,9.0,80,0.00,,,0.26,,2013-02-28 13:32:00,
2013-02-28 08:42:00,60.0,54.0,29.96,NNW,333,4.0,9.0,80,0.00,,,0.26,,2013-02-28 13:42:00,
2013-02-28 08:52:00,61.0,55.0,29.97,NW,309,4.0,7.0,80,0.00,,,0.26,,2013-02-28 13:52:00,
2013-02-28 09:01:00,61.0,54.0,29.98,NNW,339,3.0,10.0,78,0.00,,,0.26,,2013-02-28 14:01:00,
2013-02-28 09:11:00,61.0,54.0,29.98,NNW,336,3.0,8.0,78,0.00,,,0.26,,2013-02-28 14:11:00,
2013-02-28 09:22:00,61.0,54.0,29.98,NNW,336,3.0,8.0,78,0.00,,,0.26,,2013-02-28 14:22:00,
2013-02-28 09:32:00,62.0,55.0,29.98,NNW,345,4.0,8.0,77,0.00,,,0.26,,2013-02-28 14:32:00,
2013-02-28 09:42:00,62.0,53.0,29.98,North,349,6.0,11.0,73,0.00,,,0.26,,2013-02-28 14:42:00,
2013-02-28 09:52:00,62.0,53.0,29.98,North,349,6.0,11.0,73,0.00,,,0.26,,2013-02-28 14:52:00,
2013-02-28 10:02:00,63.0,53.0,29.98,North,360,4.0,10.0,71,0.00,,,0.26,,2013-02-28 15:02:00,
2013-02-28 10:11:00,64.0,54.0,29.98,NNW,343,5.0,13.0,69,0.00,,,0.26,,2013-02-28 15:11:00,
2013-02-28 10:22:00,64.0,54.0,29.98,NNW,343,5.0,13.0,69,0.00,,,0.26,,2013-02-28 15:22:00,
2013-02-28 10:32:00,64.0,54.0,29.98,NW,313,3.0,10.0,70,0.00,,,0.26,,2013-02-28 15:32:00,
2013-02-28 10:42:00,64.0,54.0,29.98,NW,313,3.0,10.0,70,0.00,,,0.26,,2013-02-28 15:42:00,
2013-02-28 10:52:00,64.0,52.0,29.97,NNW,346,4.0,10.0,66,0.00,,,0.26,,2013-02-28 15:52:00,
2013-02-28 11:02:00,65.0,53.0,29.98,NW,325,4.0,9.0,65,0.00,,,0.26,,2013-02-28 16:02:00,
2013-02-28 11:12:00,65.0,52.0,29.98,NNW,344,5.0,11.0,63,0.00,,,0.26,,2013-02-28 16:12:00,
2013-02-28 11:22:00,65.0,52.0,29.98,NNW,344,5.0,11.0,63,0.00,,,0.26,,2013-02-28 16:22:00,
2013-02-28 11:32:00,65.0,53.0,29.98,WNW,302,4.0,10.0,65,0.00,,,0.26,,2013-02-28 16:32:00,
2013-02-28 11:42:00,65.0,53.0,29.98,WNW,302,4.0,10.0,65,0.00,,,0.26,,2013-02-28 16:42:00,
2013-02-28 11:52:00,65.0,52.0,29.98,NNW,342,4.0,8.0,62,0.00,,,0.26,,2013-02-28 16:52:00,
2013-02-28 12:02:00,66.0,52.0,29.98,North,355,3.0,9.0,61,0.00,,,0.26,,2013-02-28 17:02:00,
2013-02-28 12:12:00,67.0,52.0,29.97,North,350,2.0,6.0,59,0.00,,,0.26,,2013-02-28 17:12:00,
2013-02-28 12:22:00,67.0,52.0,29.97,North,350,2.0,6.0,59,0.00,,,0.26,,2013-02-28 17:22:00,
2013-02-28 12:32:00,67.0,51.0,29.97,NNW,342,3.0,8.0,57,0.00,,,0.26,,2013-02-28 17:32:00,
2013-02-28 12:42:00,67.0,51.0,29.97,NNW,342,3.0,8.0,57,0.00,,,0.26,,2013-02-28 17:42:00,
2013-02-28 12:53:00,68.0,52.0,29.96,WNW,302,3.0,8.0,56,0.00,,,0.26,,2013-02-28 17:53:00,
2013-02-28 13:02:00,69.0,52.0,29.95,North,355,4.0,9.0,55,0.00,,,0.26,,2013-02-28 18:02:00,
2013-02-28 13:11:00,69.0,50.0,29.94,NNW,340,4.0,7.0,51,0.00,,,0.26,,2013-02-28 18:11:00,
2013-02-28 13:22:00,69.0,50.0,29.94,NNW,340,4.0,7.0,51,0.00,,,0.26,,2013-02-28 18:22:00,
2013-02-28 13:32:00,68.0,50.0,29.93,North,360,4.0,10.0,53,0.00,,,0.25,,2013-02-28 18:32:00,
2013-02-28 13:42:00,67.0,51.0,29.92,NNW,331,2.0,8.0,56,0.00,,,0.25,,2013-02-28 18:42:00,
2013-02-28 13:52:00,67.0,51.0,29.92,NNW,331,2.0,8.0,56,0.00,,,0.25,,2013-02-28 18:52:00,
2013-02-28 14:02:00,67.0,50.0,29.92,NNW,329,2.0,6.0,55,0.00,,,0.25,,2013-02-28 19:02:00,
2013-02-28 14:11:00,67.0,52.0,29.91,North,351,3.0,6.0,58,0.00,,,0.25,,2013-02-28 19:11:00,
2013-02-28 14:22:00,67.0,52.0,29.91,North,351,3.0,6.0,58,0.00,,,0.25,,2013-02-28 19:22:00,
2013-02-28 14:32:00,67.0,51.0,29.91,NW,323,3.0,7.0,56,0.00,,,0.05,,2013-02-28 19:32:00,
2013-02-28 14:42:00,67.0,51.0,29.91,NW,323,3.0,7.0,56,0.00,,,0.05,,2013-02-28 19:42:00,
2013-02-28 14:52:00,66.0,52.0,29.91,NNW,342,4.0,8.0,60,0.00,,,0.05,,2013-02-28 19:52:00,
2013-02-28 15:01:00,67.0,54.0,29.91,NNW,345,3.0,7.0,62,0.00,,,0.05,,2013-02-28 20:01:00,
2013-02-28 15:12:00,67.0,54.0,29.91,NNW,345,3.0,7.0,62,0.00,,,0.05,,2013-02-28 20:12:00,
2013-02-28 15:22:00,66.0,50.0,29.91,NNW,340,3.0,9.0,56,0.00,,,0.05,,2013-02-28 20:22:00,
2013-02-28 15:32:00,66.0,50.0,29.90,NNW,346,2.0,6.0,56,0.00,,,0.04,,2013-02-28 20:32:00,
2013-02-28 15:42:00,66.0,50.0,29.90,NNW,346,2.0,6.0,56,0.00,,,0.04,,2013-02-28 20:42:00,
2013-02-28 15:52:00,66.0,50.0,29.90,WNW,293,1.0,7.0,56,0.00,,,0.04,,2013-02-28 20:52:00,
2013-02-28 16:02:00,67.0,52.0,29.91,West,276,2.0,6.0,59,0.00,,,0.04,,2013-02-28 21:02:00,
2013-02-28 16:11:00,67.0,52.0,29.91,West,276,2.0,6.0,59,0.00,,,0.04,,2013-02-28 21:11:00,
2013-02-28 16:22:00,67.0,54.0,29.90,West,281,2.0,7.0,63,0.00,,,0.04,,2013-02-28 21:22:00,
2013-02-28 16:32:00,68.0,53.0,29.90,NNW,340,1.0,4.0,58,0.00,,,0.04,,2013-02-28 21:32:00,
2013-02-28 16:42:00,68.0,53.0,29.90,NNW,340,1.0,4.0,58,0.00,,,0.04,,2013-02-28 21:42:00,
2013-02-28 16:52:00,68.0,53.0,29.90,NW,320,1.0,4.0,58,0.00,,,0.04,,2013-02-28 21:52:00,
2013-02-28 17:01:00,67.0,51.0,29.90,NW,318,0.0,1.0,57,0.00,,,0.04,,2013-02-28 22:01:00,
2013-02-28 17:11:00,68.0,51.0,29.90,WSW,246,0.0,3.0,54,0.00,,,0.04,,2013-02-28 22:11:00,
2013-02-28 17:22:00,68.0,51.0,29.90,WSW,246,0.0,3.0,54,0.00,,,0.04,,2013-02-28 22:22:00,
2013-02-28 17:32:00,68.0,50.0,29.91,NW,322,2.0,4.0,52,0.00,,,0.04,,2013-02-28 22:32:00,
2013-02-28 17:42:00,68.0,50.0,29.91,NW,322,2.0,4.0,52,0.00,,,0.04,,2013-02-28 22:42:00,
2013-02-28 17:52:00,68.0,51.0,29.90,North,351,2.0,5.0,54,0.00,,,0.04,,2013-02-28 22:52:00,
2013-02-28 18:01:00,67.0,50.0,29.91,North,350,0.0,4.0,54,0.00,,,0.04,,2013-02-28 23:01:00,
2013-02-28 18:11:00,67.0,50.0,29.90,WNW,284,0.0,4.0,54,0.00,,,0.04,,2013-02-28 23:11:00,
2013-02-28 18:22:00,67.0,50.0,29.90,WNW,284,0.0,4.0,54,0.00,,,0.04,,2013-02-28 23:22:00,
2013-02-28 18:32:00,67.0,50.0,29.91,NNW,340,2.0,5.0,54,0.00,,,0.04,,2013-02-28 23:32:00,
2013-02-28 18:42:00,67.0,50.0,29.91,NNW,340,2.0,5.0,54,0.00,,,0.04,,2013-02-28 23:42:00,
2013-02-28 18:53:00,67.0,50.0,29.92,North,355,2.0,5.0,55,0.00,,,0.04,,2013-02-28 23:53:00,
2013-02-28 19:02:00,67.0,51.0,29.92,North,355,0.0,2.0,56,0.00,,,0.04,,2013-03-01 00:02:00,
2013-02-28 19:11:00,67.0,51.0,29.92,North,355,0.0,2.0,56,0.00,,,0.04,,2013-03-01 00:11:00,
2013-02-28 19:22:00,67.0,51.0,29.92,North,350,0.0,2.0,57,0.00,,,0.04,,2013-03-01 00:22:00,
2013-02-28 19:32:00,67.0,51.0,29.92,North,350,0.0,1.0,57,0.00,,,0.04,,2013-03-01 00:32:00,
2013-02-28 19:42:00,67.0,51.0,29.92,North,350,0.0,1.0,57,0.00,,,0.04,,2013-03-01 00:42:00,
2013-02-28 19:52:00,67.0,52.0,29.92,North,355,0.0,3.0,58,0.00,,,0.04,,2013-03-01 00:52:00,
2013-02-28 20:01:00,67.0,52.0,29.92,SSW,194,0.0,3.0,59,0.00,,,0.04,,2013-03-01 01:01:00,
2013-02-28 20:11:00,66.0,52.0,29.92,SSW,194,0.0,4.0,60,0.00,,,0.04,,2013-03-01 01:11:00,
2013-02-28 20:21:00,66.0,52.0,29.92,SSW,194,0.0,4.0,60,0.00,,,0.04,,2013-03-01 01:21:00,
2013-02-28 20:32:00,67.0,54.0,29.92,South,188,0.0,6.0,64,0.00,,,0.04,,2013-03-01 01:32:00,
2013-02-28 20:42:00,67.0,54.0,29.92,South,188,0.0,6.0,64,0.00,,,0.04,,2013-03-01 01:42:00,
2013-02-28 20:52:00,67.0,54.0,29.93,South,180,0.0,6.0,62,0.00,,,0.04,,2013-03-01 01:52:00,
2013-02-28 21:01:00,66.0,53.0,29.93,South,180,0.0,2.0,63,0.00,,,0.04,,2013-03-01 02:01:00,
2013-02-28 21:11:00,66.0,53.0,29.93,South,180,0.0,1.0,63,0.00,,,0.04,,2013-03-01 02:11:00,
2013-02-28 21:21:00,66.0,53.0,29.93,South,180,0.0,1.0,63,0.00,,,0.04,,2013-03-01 02:21:00,
2013-02-28 21:32:00,66.0,53.0,29.93,South,180,0.0,2.0,64,0.00,,,0.04,,2013-03-01 02:32:00,
2013-02-28 21:42:00,66.0,53.0,29.93,South,180,0.0,2.0,64,0.00,,,0.04,,2013-03-01 02:42:00,
2013-02-28 21:52:00,65.0,53.0,29.93,South,180,0.0,1.0,65,0.00,,,0.04,,2013-03-01 02:52:00,
2013-02-28 22:02:00,65.0,53.0,29.93,South,180,0.0,0.0,66,0.00,,,0.04,,2013-03-01 03:02:00,
2013-02-28 22:11:00,65.0,53.0,29.93,South,180,0.0,1.0,66,0.00,,,0.04,,2013-03-01 03:11:00,
2013-02-28 22:21:00,65.0,53.0,29.93,South,180,0.0,1.0,66,0.00,,,0.04,,2013-03-01 03:21:00,
2013-02-28 22:32:00,65.0,53.0,29.93,South,180,0.0,2.0,64,0.00,,,0.00,,2013-03-01 03:32:00,
2013-02-28 22:42:00,65.0,53.0,29.93,South,180,0.0,2.0,64,0.00,,,0.00,,2013-03-01 03:42:00,
2013-02-28 22:52:00,65.0,51.0,29.93,South,180,0.0,2.0,61,0.00,,,0.00,,2013-03-01 03:52:00,
2013-02-28 23:01:00,65.0,51.0,29.93,South,180,0.0,1.0,61,0.00,,,0.00,,2013-03-01 04:01:00,
2013-02-28 23:11:00,65.0,51.0,29.93,South,180,0.0,1.0,61,0.00,,,0.00,,2013-03-01 04:11:00,
2013-02-28 23:21:00,65.0,51.0,29.93,South,181,0.0,3.0,60,0.00,,,0.00,,2013-03-01 04:21:00,
2013-02-28 23:32:00,66.0,52.0,29.93,South,181,0.0,3.0,61,0.00,,,0.00,,2013-03-01 04:32:00,
2013-02-28 23:42:00,66.0,52.0,29.93,South,181,0.0,3.0,61,0.00,,,0.00,,2013-03-01 04:42:00,
2013-02-28 23:52:00,65.0,52.0,29.92,WSW,252,0.0,4.0,62,0.00,,,0.00,,2013-03-01 04:52:00,